KK4PTE Weather Reports


time (UTC)temp
F
wind
direction
speed
knots
gust
knots
rain 1hr
in
rain 24hr
in
rain mn
in
humidity
%
barometer
mb
20260906124555 72 52 0.0 1.7 0.00 0.18 0.18 89 1012.1
20260906123056 72 95 0.0 0.0 0.00 0.18 0.18 89 1012.0
20260906121601 72 95 0.0 0.0 0.00 0.18 0.18 88 1011.9
20260906120055 71 252 0.0 0.0 0.00 0.18 0.18 89 1011.8
20260906114610 71 249 0.0 0.0 0.00 0.18 0.18 88 1011.7
20260906113057 71 249 0.0 0.0 0.00 0.18 0.18 88 1011.5
20260906111553 71 249 0.0 0.0 0.00 0.18 0.18 88 1011.5
20260906110053 71 249 0.0 0.0 0.00 0.18 0.18 88 1011.5
20260906104552 71 244 0.0 3.5 0.00 0.18 0.18 88 1011.5
20260906103051 71 239 0.0 1.7 0.00 0.18 0.18 88 1011.8
20260906101550 71 210 0.0 0.9 0.00 0.18 0.18 88 1011.4
20260906100048 72 210 0.0 1.7 0.00 0.18 0.18 88 1011.3
20260906094548 72 285 0.0 2.6 0.00 0.18 0.18 88 1011.4
20260906093046 72 283 2.6 5.2 0.02 0.18 0.18 88 1011.7
20260906091544 72 299 0.0 0.0 0.02 0.18 0.18 88 1011.6
20260906090044 73 261 0.0 2.6 0.02 0.18 0.18 87 1011.7
20260906084543 73 201 1.7 3.5 0.02 0.18 0.18 87 1012.0
20260906083043 73 163 0.0 9.6 0.00 0.16 0.16 87 1012.2
20260906081547 73 168 0.0 5.2 0.00 0.16 0.16 87 1012.2
20260906080042 73 278 1.7 10.4 0.14 0.16 0.16 87 1011.9
20260906074552 73 340 0.0 0.9 0.15 0.16 0.16 87 1011.6
20260906073038 73 70 0.0 0.0 0.16 0.16 0.16 87 1011.1
20260906071538 73 139 0.0 8.7 0.16 0.16 0.16 87 1011.5
20260906070033 74 343 0.0 3.5 0.02 0.02 0.02 86 1011.9
20260906064531 74 351 4.3 11.3 0.01 0.01 0.01 84 1011.8
20260906063030 74 87 0.9 13.9 0.00 0.00 0.00 83 1012.0
20260906061529 75 59 6.1 12.2 0.00 0.00 0.00 83 1012.3
20260906060028 76 110 5.2 13.9 0.00 0.00 0.00 82 1012.2
20260906054529 77 79 10.4 22.6 0.00 0.00 0.00 80 1012.4
20260906053023 76 65 7.0 12.2 0.00 0.00 0.00 84 1012.2
20260906051517 76 87 0.0 0.0 0.00 0.00 0.00 85 1011.2
20260906050030 76 87 0.0 0.0 0.00 0.00 0.00 85 1011.2
20260906044528 76 87 0.0 0.0 0.00 0.00 0.00 84 1011.2
20260906043014 76 87 0.0 0.0 0.00 0.00 0.00 84 1011.8
20260906041515 76 87 0.0 0.0 0.00 0.00 0.00 84 1011.8
20260906040023 77 87 0.0 0.0 0.00 0.00 0.00 83 1011.8
20260906034515 77 86 0.0 0.0 0.00 0.00 0.00 83 1011.8
20260906033030 77 180 0.0 0.0 0.00 0.00 0.00 83 1011.8
20260906031514 78 88 0.0 0.0 0.00 0.00 0.00 82 1011.8
20260906030014 78 55 0.0 0.0 0.00 0.00 0.00 82 1011.4
20260906024510 79 54 0.0 0.0 0.00 0.00 0.00 82 1011.3
20260906023011 79 180 0.9 5.2 0.00 0.00 0.00 81 1011.0
20260906021510 80 72 0.0 0.0 0.00 0.00 0.00 79 1010.5
20260906020009 81 72 0.0 0.0 0.00 0.00 0.00 79 1010.4
20260906014508 81 72 0.0 0.0 0.00 0.00 0.00 77 1010.3
20260906013012 83 72 0.0 0.0 0.00 0.00 0.00 76 1010.6
20260906011509 84 72 0.0 3.5 0.00 0.00 0.00 72 1010.6
20260906010007 85 71 2.6 7.0 0.00 0.00 0.00 70 1010.5
20260906004506 84 63 2.6 4.3 0.00 0.00 0.00 72 1010.2
20260906003006 85 70 2.6 6.1 0.00 0.00 0.00 74 1010.1
20260906001505 87 301 0.0 1.7 0.00 0.00 0.00 69 1010.0
20260906000004 89 301 0.0 0.0 0.00 0.00 0.00 65 1010.1
20260905234506 92 301 0.0 0.0 0.00 0.00 0.00 60 1010.2
20260905233003 95 301 0.0 3.5 0.00 0.00 0.00 55 1010.1
20260905231503 96 281 0.9 7.8 0.00 0.00 0.00 52 1010.3
20260905230004 97 297 0.9 7.0 0.00 0.00 0.00 53 1010.2
20260905224504 97 257 0.0 3.5 0.00 0.00 0.00 50 1010.0
20260905223100 98 313 0.0 3.5 0.00 0.00 0.00 49 1010.2
20260905221605 98 274 0.0 5.2 0.00 0.00 0.00 49 1010.3
20260905220108 97 322 1.7 4.3 0.00 0.00 0.00 49 1010.3
20260905214557 98 285 0.9 5.2 0.00 0.00 0.00 49 1010.4
20260905213056 97 25 0.0 7.8 0.00 0.00 0.00 48 1010.4
20260905211627 97 303 4.3 7.0 0.00 0.00 0.00 49 1010.5
20260905210057 98 20 1.7 7.8 0.00 0.00 0.00 47 1010.4
20260905204557 97 293 4.3 7.0 0.00 0.00 0.00 48 1010.6
20260905203112 98 304 4.3 7.8 0.00 0.00 0.00 49 1010.7
20260905201551 97 290 2.6 3.5 0.00 0.00 0.00 51 1011.0
20260905200055 98 64 1.7 7.0 0.00 0.01 0.00 51 1011.1
20260905194544 98 274 2.6 7.8 0.00 0.01 0.00 49 1011.3
20260905193042 97 308 3.5 8.7 0.00 0.01 0.00 50 1011.5
20260905191539 97 332 0.0 7.0 0.00 0.01 0.00 54 1011.8
20260905190038 96 76 2.6 6.1 0.00 0.01 0.00 53 1012.1
20260905184534 95 245 0.9 3.5 0.00 0.01 0.00 58 1012.2
20260905183032 94 325 0.9 5.2 0.00 0.01 0.00 57 1012.5
20260905181529 95 278 0.9 7.0 0.00 0.01 0.00 56 1012.6
20260905180028 94 295 1.7 5.2 0.00 0.01 0.00 60 1012.8
20260905174534 95 295 0.0 6.1 0.00 0.01 0.00 57 1012.7
20260905173027 94 167 0.0 3.5 0.00 0.01 0.00 59 1012.8
20260905171534 93 151 1.7 4.3 0.00 0.01 0.00 61 1013.1
20260905170018 93 250 0.9 3.5 0.00 0.01 0.00 65 1013.3
20260905164513 91 11 0.0 3.5 0.00 0.01 0.00 64 1013.5
20260905163009 89 276 0.9 5.2 0.00 0.01 0.00 68 1013.8
20260905161506 88 317 0.0 5.2 0.00 0.01 0.00 70 1013.9
20260905160006 87 60 0.9 3.5 0.00 0.01 0.00 70 1014.2
20260905154602 85 322 0.9 5.2 0.00 0.01 0.00 73 1014.3
20260905153056 84 327 0.0 0.0 0.00 0.01 0.00 78 1014.2
20260905151602 82 272 0.0 0.0 0.00 0.01 0.00 80 1014.3
20260905150048 81 227 0.0 0.0 0.00 0.01 0.00 83 1014.3
20260905144544 79 218 0.0 0.0 0.00 0.01 0.00 85 1014.6
20260905143041 77 1 0.0 0.0 0.00 0.01 0.00 87 1014.6
20260905141542 76 1 0.0 0.0 0.00 0.01 0.00 88 1014.8
20260905140036 75 4 0.0 0.0 0.00 0.01 0.00 89 1014.7
20260905134533 74 180 0.0 0.0 0.00 0.01 0.00 89 1014.7
20260905133027 74 180 0.0 0.0 0.00 0.01 0.00 89 1014.7
20260905131527 73 5 0.0 0.0 0.00 0.01 0.00 89 1014.7
20260905130026 73 4 0.0 0.0 0.00 0.01 0.00 89 1014.7